Stündliche Wetter Kysylorda

Heute, 14 Mai, Freitag

Zeit Temperatur Niederschläge Wind Luftdruck Luftfeuchtigkeit
00:00 +22°C° 0 mm 4 m/S 753 mmHg 26%
01:00 +22°C° 0 mm 5 m/S 753 mmHg 29%
02:00 +21°C° 0 mm 5 m/S 753 mmHg 34%
03:00 +21°C° 0 mm 5 m/S 753 mmHg 39%
04:00 +20°C° 0 mm 6 m/S 753 mmHg 44%
05:00 +21°C° 0 mm 7 m/S 754 mmHg 40%
06:00 +22°C° 0 mm 7 m/S 754 mmHg 37%
07:00 +22°C° 0 mm 8 m/S 754 mmHg 33%
08:00 +24°C° 0 mm 9 m/S 754 mmHg 30%
09:00 +26°C° 0 mm 9 m/S 755 mmHg 26%
10:00 +28°C° 0 mm 9 m/S 755 mmHg 22%
11:00 +29°C° 0 mm 10 m/S 754 mmHg 22%
12:00 +31°C° 0 mm 10 m/S 754 mmHg 21%
13:00 +32°C° 0 mm 10 m/S 754 mmHg 21%
14:00 +32°C° 0 mm 10 m/S 754 mmHg 20%
15:00 +32°C° 0 mm 9 m/S 753 mmHg 20%
16:00 +32°C° 0 mm 9 m/S 753 mmHg 20%
17:00 +32°C° 0 mm 8 m/S 753 mmHg 20%
18:00 +31°C° 0 mm 8 m/S 753 mmHg 21%
19:00 +29°C° 0 mm 8 m/S 753 mmHg 22%
20:00 +28°C° 0 mm 8 m/S 753 mmHg 23%
21:00 +27°C° 0 mm 8 m/S 753 mmHg 24%
22:00 +26°C° 0 mm 9 m/S 753 mmHg 25%
23:00 +24°C° 0 mm 8 m/S 753 mmHg 26%

Morgen, 15 Mai, Samstag

Zeit Temperatur Niederschläge Wind Luftdruck Luftfeuchtigkeit
00:00 +23°C° 0 mm 7 m/S 753 mmHg 27%
01:00 +22°C° 0 mm 6 m/S 753 mmHg 27%
02:00 +21°C° 0 mm 7 m/S 753 mmHg 29%
03:00 +20°C° 0 mm 7 m/S 753 mmHg 32%
04:00 +18°C° 0 mm 7 m/S 753 mmHg 34%
05:00 +20°C° 0 mm 8 m/S 753 mmHg 32%
06:00 +21°C° 0 mm 9 m/S 754 mmHg 30%
07:00 +22°C° 0 mm 10 m/S 754 mmHg 28%
08:00 +23°C° 0 mm 10 m/S 754 mmHg 25%
09:00 +24°C° 0 mm 10 m/S 754 mmHg 22%
10:00 +27°C° 0 mm 11 m/S 754 mmHg 18%
11:00 +28°C° 0 mm 11 m/S 753 mmHg 17%
12:00 +29°C° 0 mm 11 m/S 753 mmHg 15%
13:00 +31°C° 0 mm 11 m/S 753 mmHg 13%
14:00 +31°C° 0 mm 11 m/S 752 mmHg 13%
15:00 +31°C° 0 mm 10 m/S 752 mmHg 13%
16:00 +31°C° 0 mm 10 m/S 752 mmHg 12%
17:00 +29°C° 0 mm 10 m/S 752 mmHg 14%
18:00 +28°C° 0 mm 9 m/S 752 mmHg 15%
19:00 +27°C° 0 mm 8 m/S 752 mmHg 16%
20:00 +26°C° 0 mm 8 m/S 752 mmHg 17%
21:00 +26°C° 0 mm 7 m/S 752 mmHg 18%
22:00 +24°C° 0 mm 7 m/S 752 mmHg 19%
23:00 +23°C° 0 mm 6 m/S 752 mmHg 21%

übermorgen, 16 Mai, Sonntag

Zeit Temperatur Niederschläge Wind Luftdruck Luftfeuchtigkeit
00:00 +22°C° 0 mm 6 m/S 752 mmHg 23%
01:00 +21°C° 0 mm 5 m/S 752 mmHg 25%
02:00 +20°C° 0 mm 6 m/S 752 mmHg 26%
03:00 +20°C° 0 mm 6 m/S 752 mmHg 27%
04:00 +18°C° 0 mm 7 m/S 752 mmHg 28%
05:00 +20°C° 0 mm 8 m/S 752 mmHg 26%
06:00 +22°C° 0 mm 9 m/S 752 mmHg 24%
07:00 +23°C° 0 mm 10 m/S 753 mmHg 22%
08:00 +26°C° 0 mm 10 m/S 753 mmHg 19%
09:00 +28°C° 0 mm 10 m/S 753 mmHg 16%
10:00 +29°C° 0 mm 10 m/S 752 mmHg 13%
11:00 +31°C° 0 mm 10 m/S 752 mmHg 12%
12:00 +32°C° 0 mm 10 m/S 752 mmHg 11%
13:00 +33°C° 0 mm 10 m/S 751 mmHg 10%
14:00 +33°C° 0 mm 10 m/S 751 mmHg 10%
15:00 +33°C° 0 mm 10 m/S 751 mmHg 10%
16:00 +33°C° 0 mm 10 m/S 750 mmHg 10%
17:00 +32°C° 0 mm 9 m/S 750 mmHg 11%
18:00 +31°C° 0 mm 8 m/S 750 mmHg 12%
19:00 +29°C° 0 mm 6 m/S 750 mmHg 13%
20:00 +28°C° 0 mm 6 m/S 750 mmHg 14%
21:00 +27°C° 0 mm 5 m/S 750 mmHg 15%
22:00 +26°C° 0 mm 5 m/S 750 mmHg 17%
23:00 +25°C° 0 mm 5 m/S 750 mmHg 18%

17 Mai, Montag

Zeit Temperatur Niederschläge Wind Luftdruck Luftfeuchtigkeit
00:00 +23°C° 0 mm 5 m/S 750 mmHg 20%
01:00 +22°C° 0 mm 5 m/S 750 mmHg 21%
02:00 +22°C° 0 mm 5 m/S 750 mmHg 22%
03:00 +21°C° 0 mm 5 m/S 750 mmHg 23%
04:00 +21°C° 0 mm 5 m/S 750 mmHg 24%
05:00 +22°C° 0 mm 6 m/S 750 mmHg 22%
06:00 +24°C° 0 mm 7 m/S 751 mmHg 20%
07:00 +27°C° 0 mm 8 m/S 751 mmHg 18%
08:00 +28°C° 0 mm 9 m/S 751 mmHg 16%
09:00 +31°C° 0 mm 10 m/S 750 mmHg 14%
10:00 +32°C° 0 mm 10 m/S 750 mmHg 13%
11:00 +33°C° 0 mm 10 m/S 750 mmHg 11%
12:00 +34°C° 0 mm 10 m/S 749 mmHg 10%
13:00 +36°C° 0 mm 10 m/S 749 mmHg 9%
14:00 +35°C° 0 mm 9 m/S 749 mmHg 9%
15:00 +35°C° 0 mm 9 m/S 748 mmHg 9%
16:00 +35°C° 0 mm 9 m/S 748 mmHg 8%
17:00 +34°C° 0 mm 7 m/S 748 mmHg 9%
18:00 +33°C° 0 mm 6 m/S 748 mmHg 10%
19:00 +32°C° 0 mm 5 m/S 748 mmHg 11%
20:00 +29°C° 0 mm 5 m/S 748 mmHg 12%
21:00 +28°C° 0 mm 4 m/S 748 mmHg 13%
22:00 +27°C° 0 mm 4 m/S 748 mmHg 14%
23:00 +27°C° 0 mm 4 m/S 747 mmHg 14%

18 Mai, Dienstag

Zeit Temperatur Niederschläge Wind Luftdruck Luftfeuchtigkeit
00:00 +26°C° 0 mm 4 m/S 747 mmHg 15%
01:00 +25°C° 0 mm 4 m/S 747 mmHg 16%
02:00 +25°C° 0 mm 4 m/S 747 mmHg 18%
03:00 +23°C° 0 mm 4 m/S 747 mmHg 19%
04:00 +23°C° 0 mm 4 m/S 747 mmHg 21%
05:00 +25°C° 0 mm 4 m/S 747 mmHg 19%
06:00 +27°C° 0 mm 4 m/S 747 mmHg 18%
07:00 +28°C° 0 mm 5 m/S 748 mmHg 16%
08:00 +30°C° 0 mm 5 m/S 747 mmHg 14%
09:00 +33°C° 0 mm 5 m/S 747 mmHg 13%
10:00 +35°C° 0 mm 5 m/S 747 mmHg 11%
11:00 +36°C° 0 mm 5 m/S 747 mmHg 11%
12:00 +36°C° 0 mm 5 m/S 746 mmHg 10%
13:00 +37°C° 0 mm 5 m/S 746 mmHg 10%
14:00 +37°C° 0 mm 5 m/S 746 mmHg 10%
15:00 +37°C° 0 mm 5 m/S 746 mmHg 10%
16:00 +37°C° 0 mm 5 m/S 745 mmHg 10%
17:00 +36°C° 0 mm 4 m/S 745 mmHg 11%
18:00 +34°C° 0 mm 4 m/S 745 mmHg 12%
19:00 +33°C° 0 mm 3 m/S 745 mmHg 13%
20:00 +31°C° 0 mm 3 m/S 745 mmHg 14%
21:00 +30°C° 0 mm 4 m/S 745 mmHg 15%
22:00 +30°C° 0 mm 4 m/S 745 mmHg 16%
23:00 +28°C° 0 mm 4 m/S 745 mmHg 22%

19 Mai, Mittwoch

Zeit Temperatur Niederschläge Wind Luftdruck Luftfeuchtigkeit
00:00 +27°C° 0 mm 4 m/S 745 mmHg 28%
01:00 +26°C° 0 mm 5 m/S 746 mmHg 34%
02:00 +25°C° 0 mm 4 m/S 745 mmHg 34%
03:00 +25°C° 0 mm 4 m/S 745 mmHg 35%
04:00 +24°C° 0 mm 3 m/S 745 mmHg 36%
05:00 +26°C° 0 mm 4 m/S 746 mmHg 33%
06:00 +27°C° 0 mm 4 m/S 746 mmHg 31%
07:00 +29°C° 0 mm 5 m/S 746 mmHg 28%
08:00 +30°C° 0 mm 5 m/S 746 mmHg 25%
09:00 +33°C° 0 mm 5 m/S 746 mmHg 21%
10:00 +35°C° 0 mm 4 m/S 746 mmHg 18%
11:00 +36°C° 0 mm 5 m/S 746 mmHg 17%
12:00 +36°C° 0 mm 5 m/S 746 mmHg 16%
13:00 +37°C° 0 mm 5 m/S 746 mmHg 15%
14:00 +37°C° 0 mm 5 m/S 746 mmHg 15%
15:00 +38°C° 0 mm 6 m/S 745 mmHg 15%
16:00 +38°C° 0 mm 6 m/S 745 mmHg 15%
17:00 +36°C° 0 mm 6 m/S 745 mmHg 16%
18:00 +35°C° 0 mm 5 m/S 745 mmHg 17%
19:00 +34°C° 0 mm 4 m/S 745 mmHg 19%
20:00 +33°C° 0 mm 5 m/S 746 mmHg 19%
21:00 +33°C° 0 mm 6 m/S 746 mmHg 20%
22:00 +32°C° 0 mm 7 m/S 746 mmHg 20%
23:00 +30°C° 0 mm 7 m/S 747 mmHg 22%
Mehr zeigen

Wir brauchen deine Erlaubnis

Meteoprog und unser Service Anbieter werden persönliche Daten aufbewahren, so wie Cookies, Geräte Bezeichnung oder ähnliche Technologien von deinem Gerät und Prozess, so wie Persönliche Daten Inhalte und Werbungen, genauso wie social Media und den Verkehr zu analysieren.

  • Aufbewahrung und/oder Zugang zu deiner Geräte Informationen.

    Cookies, Geräte Bezeichnung oder andere Informationen, können aufbewahrt oder Zugang zu deinem Gerät erhalten, für den Grund, der oben angegeben wird.

  • Personalisierte Werbung und Inhalte, Messungen, Einblick in das Publikum und Produkt Entwicklung.

    Werbungen und Inhalte können personalisiert werden, basierend auf ein Profil. Mehr Daten können besser personalisierte Werbungen und Inhalte hinzufügen. Werbung und Inhalte können gezeigt und gemessen werden. Einblicke über das Publikum, welche die Werbung gesehen haben und den Inhalt, können abgeleitet werden. So wie Daten können genutzt werden, um es zu verbessern oder die Benutzer Erfahrung zu verbessern das System und die Software.

Wenn du “Ich stimme zu” klickst, erlaubst du uns, die Cookies zu benutzen die Geräte Bezeichnung, den Web oder ähnliche Technologien zu benutzen. Deine Settings, können in deinem Gerät bei deinem Browser geändert werden.

Für den bestimmten Zweck, berechtigten Interessen beruhen darauf, mehr als auf den Inhalt. Du kannst mehr darüber in unseren Privaten und Cookie Politik lesen.